DLH3UT LYBE-EDDF

Flight info

Callsign DLH3UT
Flight time 1h 38m
Altitude 38000
Route TISAK DCT TONDO DCT ARSIN DCT SUBEN DCT AKINI T161 ASPAT/N0414F300 T161 DEBHI DEBHI1B
Aircraft A320/M-SDE3FGHIRWY/LB1

Departure

Time 2026-04-15 21:02
Airport Belgrade Nikola Tesla Airport (LYBE)

Arrival

Time 2026-04-15 22:41
Airport Frankfurt Main Airport (EDDF)
Time Latitude Longitude Altitude Speed Heading
2026-04-15 20:38 44.81857 20.29199 309 ft 0 kts 302°
2026-04-15 20:52 44.81855 20.29204 308 ft 3 kts 302°
2026-04-15 20:52 44.81844 20.29228 306 ft 3 kts 308°
2026-04-15 20:52 44.81831 20.29249 305 ft 3 kts 320°
2026-04-15 20:53 44.81815 20.29264 305 ft 3 kts 348°
2026-04-15 20:53 44.81799 20.29263 306 ft 1 kts 32°
2026-04-15 20:55 44.81812 20.29275 306 ft 6 kts 32°
2026-04-15 20:55 44.81848 20.29306 309 ft 8 kts 32°
2026-04-15 20:56 44.81915 20.29365 310 ft 11 kts 32°
2026-04-15 20:56 44.81979 20.29422 308 ft 12 kts 32°
2026-04-15 20:56 44.82061 20.29495 307 ft 13 kts 32°
2026-04-15 20:56 44.82112 20.29564 308 ft 9 kts 79°
2026-04-15 20:57 44.82082 20.29664 308 ft 16 kts 121°
2026-04-15 20:57 44.82025 20.29792 307 ft 15 kts 122°
2026-04-15 20:57 44.81963 20.29929 307 ft 16 kts 122°
2026-04-15 20:57 44.81925 20.30016 307 ft 15 kts 121°
2026-04-15 20:58 44.81848 20.30190 308 ft 17 kts 121°
2026-04-15 20:58 44.81807 20.30289 307 ft 18 kts 121°
2026-04-15 20:58 44.81737 20.30442 307 ft 19 kts 122°
2026-04-15 20:58 44.81665 20.30600 307 ft 19 kts 123°
2026-04-15 20:59 44.81591 20.30766 307 ft 23 kts 122°
2026-04-15 20:59 44.81506 20.30960 308 ft 23 kts 121°
2026-04-15 20:59 44.81420 20.31157 306 ft 24 kts 122°
2026-04-15 20:59 44.81336 20.31349 306 ft 24 kts 121°
2026-04-15 21:00 44.81247 20.31549 307 ft 22 kts 122°
2026-04-15 21:00 44.81162 20.31737 306 ft 23 kts 121°
2026-04-15 21:00 44.81083 20.31915 307 ft 21 kts 122°
2026-04-15 21:00 44.81015 20.32069 308 ft 10 kts 121°
2026-04-15 21:01 44.80989 20.32155 306 ft 9 kts 97°
2026-04-15 21:01 44.81017 20.32255 306 ft 11 kts 42°
2026-04-15 21:01 44.81064 20.32215 304 ft 9 kts 295°
2026-04-15 21:01 44.81101 20.32128 306 ft 19 kts 302°
2026-04-15 21:02 44.81338 20.31595 307 ft 109 kts 302°
2026-04-15 21:02 44.81878 20.30391 332 ft 176 kts 301°
2026-04-15 21:02 44.82601 20.28841 888 ft 199 kts 303°
2026-04-15 21:02 44.83356 20.27231 1699 ft 195 kts 305°
2026-04-15 21:03 44.84100 20.25575 2178 ft 210 kts 303°
2026-04-15 21:03 44.84902 20.23749 2567 ft 228 kts 302°
2026-04-15 21:03 44.85761 20.21787 3125 ft 244 kts 302°
2026-04-15 21:03 44.86668 20.19717 4042 ft 247 kts 302°
2026-04-15 21:04 44.87566 20.17681 4967 ft 249 kts 301°
2026-04-15 21:04 44.88493 20.15595 5710 ft 255 kts 302°
2026-04-15 21:04 44.89460 20.13489 5965 ft 262 kts 308°
2026-04-15 21:04 44.90911 20.11832 6563 ft 276 kts 336°
2026-04-15 21:05 44.92786 20.11264 7378 ft 280 kts
2026-04-15 21:05 44.94722 20.11617 8280 ft 282 kts
2026-04-15 21:05 44.96666 20.12062 9186 ft 285 kts
2026-04-15 21:05 44.98629 20.12527 10089 ft 288 kts
2026-04-15 21:06 45.00613 20.13002 10905 ft 291 kts
2026-04-15 21:06 45.02617 20.13479 11710 ft 294 kts
2026-04-15 21:06 45.04647 20.13959 12525 ft 297 kts
2026-04-15 21:06 45.06698 20.14440 13330 ft 300 kts
2026-04-15 21:07 45.08770 20.14922 14101 ft 304 kts
2026-04-15 21:07 45.10869 20.15406 14793 ft 307 kts
2026-04-15 21:07 45.12990 20.15895 15471 ft 311 kts
2026-04-15 21:07 45.15140 20.16393 16140 ft 315 kts
2026-04-15 21:08 45.17314 20.16900 16809 ft 319 kts
2026-04-15 21:08 45.19517 20.17416 17475 ft 323 kts
2026-04-15 21:08 45.21749 20.17940 18134 ft 327 kts
2026-04-15 21:08 45.24008 20.18468 18748 ft 331 kts
2026-04-15 21:09 45.26256 20.18994 19327 ft 334 kts
2026-04-15 21:09 45.28557 20.19535 19921 ft 336 kts
2026-04-15 21:09 45.30870 20.20078 20512 ft 338 kts
2026-04-15 21:09 45.33204 20.20622 21101 ft 341 kts
2026-04-15 21:10 45.35553 20.21167 21682 ft 343 kts
2026-04-15 21:10 45.37922 20.21678 22252 ft 345 kts
2026-04-15 21:10 45.40320 20.21586 22797 ft 345 kts 348°
2026-04-15 21:10 45.42635 20.20694 23316 ft 347 kts 336°
2026-04-15 21:11 45.44782 20.19027 23447 ft 359 kts 322°
2026-04-15 21:11 45.46673 20.16625 23595 ft 371 kts 314°
2026-04-15 21:11 45.48550 20.14017 23751 ft 383 kts 314°
2026-04-15 21:11 45.50477 20.11353 24067 ft 389 kts 314°
2026-04-15 21:12 45.52429 20.08664 24466 ft 391 kts 314°
2026-04-15 21:12 45.54394 20.05960 24910 ft 393 kts 314°
2026-04-15 21:12 45.56365 20.03245 25336 ft 395 kts 314°
2026-04-15 21:12 45.58348 20.00510 25749 ft 397 kts 314°
2026-04-15 21:13 45.60340 19.97761 26171 ft 399 kts 314°
2026-04-15 21:13 45.62337 19.94996 26619 ft 400 kts 314°
2026-04-15 21:13 45.64336 19.92223 27071 ft 401 kts 313°
2026-04-15 21:13 45.66341 19.89441 27503 ft 402 kts 313°
2026-04-15 21:14 45.68351 19.86647 27918 ft 404 kts 313°
2026-04-15 21:14 45.70339 19.83880 28329 ft 405 kts 313°
2026-04-15 21:14 45.72361 19.81063 28732 ft 407 kts 313°
2026-04-15 21:14 45.74389 19.78236 29122 ft 408 kts 313°
2026-04-15 21:15 45.76427 19.75394 29509 ft 410 kts 313°
2026-04-15 21:15 45.78476 19.72533 29895 ft 412 kts 313°
2026-04-15 21:15 45.80528 19.69662 30264 ft 413 kts 313°
2026-04-15 21:15 45.82587 19.66782 30552 ft 415 kts 313°
2026-04-15 21:16 45.84658 19.63880 30826 ft 417 kts 313°
2026-04-15 21:16 45.86737 19.60962 31092 ft 419 kts 313°
2026-04-15 21:16 45.88828 19.58023 31352 ft 421 kts 313°
2026-04-15 21:16 45.90925 19.55075 31663 ft 422 kts 313°
2026-04-15 21:17 45.93022 19.52130 32041 ft 421 kts 313°
2026-04-15 21:17 45.95116 19.49185 32416 ft 421 kts 313°
2026-04-15 21:17 45.97204 19.46244 32772 ft 421 kts 313°
2026-04-15 21:17 45.99290 19.43299 33116 ft 420 kts 313°
2026-04-15 21:18 46.01380 19.40344 33455 ft 421 kts 313°
2026-04-15 21:18 46.03464 19.37392 33796 ft 421 kts 314°
2026-04-15 21:18 46.05530 19.34400 34068 ft 423 kts 313°
2026-04-15 21:18 46.07504 19.31335 34318 ft 424 kts 311°
2026-04-15 21:19 46.09453 19.28142 34587 ft 424 kts 310°
2026-04-15 21:19 46.11372 19.24914 34873 ft 424 kts 310°
2026-04-15 21:19 46.13285 19.21678 35149 ft 424 kts 310°
2026-04-15 21:19 46.15206 19.18444 35409 ft 424 kts 310°
2026-04-15 21:20 46.17136 19.15229 35662 ft 425 kts 311°
2026-04-15 21:20 46.19080 19.12016 35911 ft 425 kts 311°
2026-04-15 21:20 46.21034 19.08802 36126 ft 426 kts 311°
2026-04-15 21:20 46.22992 19.05583 36331 ft 427 kts 312°
2026-04-15 21:21 46.24951 19.02356 36547 ft 428 kts 312°
2026-04-15 21:21 46.26909 18.99123 36784 ft 428 kts 312°
2026-04-15 21:21 46.28863 18.95890 37023 ft 427 kts 312°
2026-04-15 21:21 46.30821 18.92650 37274 ft 427 kts 312°
2026-04-15 21:22 46.32772 18.89417 37491 ft 427 kts 312°
2026-04-15 21:22 46.34722 18.86180 37728 ft 427 kts 312°
2026-04-15 21:22 46.36672 18.82934 37955 ft 426 kts 312°
2026-04-15 21:22 46.38614 18.79692 38144 ft 427 kts 312°
2026-04-15 21:23 46.40558 18.76440 38189 ft 427 kts 312°
2026-04-15 21:23 46.44441 18.69936 38188 ft 427 kts 312°
2026-04-15 21:24 46.48302 18.63481 38191 ft 426 kts 312°
2026-04-15 21:24 46.52181 18.56979 38187 ft 426 kts 312°
2026-04-15 21:25 46.56053 18.50470 38188 ft 426 kts 312°
2026-04-15 21:25 46.59929 18.43943 38190 ft 426 kts 313°
2026-04-15 21:26 46.63793 18.37406 38199 ft 426 kts 313°
2026-04-15 21:26 46.67654 18.30849 38205 ft 426 kts 313°
2026-04-15 21:27 46.71514 18.24287 38200 ft 426 kts 313°
2026-04-15 21:27 46.75372 18.17722 38203 ft 426 kts 313°
2026-04-15 21:28 46.79224 18.11152 38206 ft 426 kts 313°
2026-04-15 21:28 46.83043 18.04611 38205 ft 425 kts 313°
2026-04-15 21:29 46.86875 17.98043 38206 ft 425 kts 313°
2026-04-15 21:29 46.90705 17.91470 38203 ft 424 kts 313°
2026-04-15 21:30 46.94526 17.84881 38194 ft 424 kts 313°
2026-04-15 21:30 46.98338 17.78300 38205 ft 424 kts 313°
2026-04-15 21:31 47.04035 17.68415 38212 ft 423 kts 313°
2026-04-15 21:32 47.09726 17.58520 38222 ft 422 kts 313°
2026-04-15 21:32 47.13501 17.51939 38216 ft 421 kts 313°
2026-04-15 21:33 47.17252 17.45380 38217 ft 418 kts 313°
2026-04-15 21:33 47.20986 17.38839 38220 ft 417 kts 313°
2026-04-15 21:34 47.24697 17.32308 38216 ft 416 kts 313°
2026-04-15 21:34 47.28376 17.25826 38215 ft 415 kts 313°
2026-04-15 21:35 47.32073 17.19299 38205 ft 414 kts 313°
2026-04-15 21:35 47.35760 17.12775 38211 ft 414 kts 313°
2026-04-15 21:36 47.39436 17.06249 38223 ft 413 kts 313°
2026-04-15 21:36 47.43101 16.99734 38221 ft 412 kts 313°
2026-04-15 21:37 47.46755 16.93226 38224 ft 411 kts 313°
2026-04-15 21:37 47.50402 16.86717 38192 ft 411 kts 313°
2026-04-15 21:38 47.54044 16.80193 38197 ft 411 kts 313°
2026-04-15 21:38 47.57294 16.73198 38207 ft 418 kts 298°
2026-04-15 21:39 47.59498 16.65211 38198 ft 419 kts 296°
2026-04-15 21:39 47.61682 16.57186 38207 ft 420 kts 296°
2026-04-15 21:40 47.63863 16.49151 38203 ft 420 kts 296°
2026-04-15 21:40 47.66021 16.41169 38211 ft 420 kts 296°
2026-04-15 21:41 47.68194 16.33120 38210 ft 420 kts 296°
2026-04-15 21:41 47.70352 16.25053 38214 ft 420 kts 296°
2026-04-15 21:42 47.72508 16.16994 38198 ft 420 kts 296°
2026-04-15 21:42 47.74666 16.08930 38196 ft 421 kts 296°
2026-04-15 21:43 47.76813 16.00833 38204 ft 421 kts 295°
2026-04-15 21:43 47.78950 15.92712 38210 ft 422 kts 295°
2026-04-15 21:44 47.81092 15.84586 38216 ft 422 kts 295°
2026-04-15 21:44 47.83236 15.76448 38200 ft 423 kts 295°
2026-04-15 21:45 47.85376 15.68297 38211 ft 423 kts 295°
2026-04-15 21:45 47.87513 15.60124 38211 ft 424 kts 295°
2026-04-15 21:46 47.89646 15.51930 38214 ft 424 kts 295°
2026-04-15 21:46 47.91768 15.43733 38214 ft 424 kts 295°
2026-04-15 21:47 47.93869 15.35590 38183 ft 424 kts 295°
2026-04-15 21:47 47.95979 15.27374 38190 ft 424 kts 295°
2026-04-15 21:48 47.98086 15.19151 38197 ft 425 kts 295°
2026-04-15 21:48 48.00189 15.10908 38200 ft 425 kts 295°
2026-04-15 21:49 48.02291 15.02656 38178 ft 425 kts 295°
2026-04-15 21:49 48.04391 14.94400 38185 ft 425 kts 295°
2026-04-15 21:50 48.06479 14.86130 38202 ft 425 kts 294°
2026-04-15 21:50 48.08559 14.77852 38198 ft 425 kts 294°
2026-04-15 21:51 48.10622 14.69623 38199 ft 425 kts 294°
2026-04-15 21:51 48.12697 14.61336 38184 ft 425 kts 294°
2026-04-15 21:52 48.14764 14.53039 38189 ft 425 kts 294°
2026-04-15 21:52 48.16823 14.44741 38203 ft 425 kts 294°
2026-04-15 21:53 48.18882 14.36443 38207 ft 425 kts 294°
2026-04-15 21:53 48.20927 14.28145 38207 ft 424 kts 294°
2026-04-15 21:54 48.22957 14.19834 38190 ft 424 kts 293°
2026-04-15 21:54 48.24983 14.11525 38195 ft 424 kts 293°
2026-04-15 21:55 48.26663 14.04624 38194 ft 424 kts 293°
2026-04-15 21:55 48.28682 13.96304 38194 ft 424 kts 293°
2026-04-15 21:56 48.31020 13.86641 38195 ft 424 kts 293°
2026-04-15 21:56 48.33028 13.78311 38185 ft 424 kts 292°
2026-04-15 21:57 48.34691 13.71384 38188 ft 424 kts 292°
2026-04-15 21:57 48.36680 13.63038 38191 ft 424 kts 292°
2026-04-15 21:58 48.38662 13.54689 38194 ft 424 kts 292°
2026-04-15 21:58 48.40651 13.46334 38183 ft 424 kts 292°
2026-04-15 21:59 48.42627 13.37971 38184 ft 424 kts 292°
2026-04-15 21:59 48.44633 13.29615 38188 ft 424 kts 293°
2026-04-15 22:00 48.46821 13.21370 38194 ft 424 kts 294°
2026-04-15 22:00 48.49058 13.13151 38200 ft 424 kts 294°
2026-04-15 22:01 48.51249 13.04898 38200 ft 424 kts 293°
2026-04-15 22:01 48.53409 12.96622 38200 ft 424 kts 293°
2026-04-15 22:02 48.55557 12.88332 38200 ft 424 kts 293°
2026-04-15 22:02 48.57707 12.80036 38211 ft 424 kts 293°
2026-04-15 22:03 48.59838 12.71794 38213 ft 424 kts 293°
2026-04-15 22:03 48.61978 12.63489 38212 ft 424 kts 293°
2026-04-15 22:04 48.64114 12.55188 38218 ft 424 kts 293°
2026-04-15 22:04 48.66241 12.46882 38225 ft 423 kts 293°
2026-04-15 22:05 48.68363 12.38579 38223 ft 423 kts 293°
2026-04-15 22:05 48.70477 12.30264 38223 ft 423 kts 292°
2026-04-15 22:06 48.72585 12.21948 38223 ft 423 kts 292°
2026-04-15 22:06 48.74657 12.13618 38227 ft 423 kts 288°
2026-04-15 22:07 48.75801 12.04940 38232 ft 424 kts 281°
2026-04-15 22:07 48.76748 11.96123 38234 ft 424 kts 281°
2026-04-15 22:08 48.77691 11.87312 38236 ft 423 kts 281°
2026-04-15 22:08 48.78627 11.78508 38228 ft 423 kts 280°
2026-04-15 22:09 48.79560 11.69701 38234 ft 423 kts 280°
2026-04-15 22:09 48.80483 11.60897 38239 ft 423 kts 280°
2026-04-15 22:10 48.81402 11.52083 38234 ft 423 kts 280°
2026-04-15 22:10 48.82299 11.43383 37705 ft 417 kts 280°
2026-04-15 22:10 48.82741 11.39055 37170 ft 414 kts 279°
2026-04-15 22:11 48.83180 11.34748 36646 ft 412 kts 279°
2026-04-15 22:11 48.83617 11.30451 36135 ft 411 kts 281°
2026-04-15 22:11 48.84310 11.26259 35642 ft 410 kts 290°
2026-04-15 22:11 48.85469 11.22316 35144 ft 409 kts 300°
2026-04-15 22:12 48.87052 11.18736 34666 ft 410 kts 309°
2026-04-15 22:12 48.89021 11.15598 34179 ft 411 kts 317°
2026-04-15 22:12 48.91136 11.12676 33649 ft 412 kts 317°
2026-04-15 22:12 48.93254 11.09733 33120 ft 413 kts 316°
2026-04-15 22:13 48.95377 11.06770 32600 ft 415 kts 316°
2026-04-15 22:13 48.97504 11.03793 32085 ft 416 kts 316°
2026-04-15 22:13 48.99636 11.00801 31586 ft 418 kts 316°
2026-04-15 22:13 49.01781 10.97787 31098 ft 420 kts 316°
2026-04-15 22:14 49.03908 10.94800 30624 ft 422 kts 316°
2026-04-15 22:14 49.06070 10.91758 30123 ft 424 kts 316°
2026-04-15 22:14 49.08239 10.88702 29560 ft 425 kts 316°
2026-04-15 22:14 49.10416 10.85632 29008 ft 427 kts 316°
2026-04-15 22:15 49.12599 10.82552 28480 ft 428 kts 316°
2026-04-15 22:15 49.14787 10.79458 27951 ft 429 kts 316°
2026-04-15 22:15 49.16978 10.76355 27430 ft 430 kts 316°
2026-04-15 22:15 49.19163 10.73254 26920 ft 428 kts 316°
2026-04-15 22:16 49.21310 10.70125 26415 ft 424 kts 314°
2026-04-15 22:16 49.23381 10.66940 25875 ft 421 kts 313°
2026-04-15 22:16 49.25400 10.63718 25392 ft 418 kts 312°
2026-04-15 22:16 49.27395 10.60490 24961 ft 417 kts 312°
2026-04-15 22:17 49.29381 10.57272 24521 ft 415 kts 312°
2026-04-15 22:17 49.31341 10.54120 24123 ft 413 kts 312°
2026-04-15 22:17 49.33323 10.50960 23697 ft 411 kts 313°
2026-04-15 22:17 49.35304 10.47817 23208 ft 408 kts 312°
2026-04-15 22:18 49.37072 10.44454 22711 ft 404 kts 304°
2026-04-15 22:18 49.38683 10.40951 22259 ft 401 kts 304°
2026-04-15 22:18 49.40282 10.37457 21872 ft 399 kts 304°
2026-04-15 22:18 49.41872 10.33981 21487 ft 396 kts 304°
2026-04-15 22:19 49.43449 10.30527 21117 ft 394 kts 303°
2026-04-15 22:19 49.45012 10.27087 20745 ft 392 kts 303°
2026-04-15 22:19 49.46568 10.23656 20365 ft 390 kts 303°
2026-04-15 22:19 49.48109 10.20254 19999 ft 387 kts 303°
2026-04-15 22:20 49.49643 10.16867 19639 ft 385 kts 303°
2026-04-15 22:20 49.51170 10.13494 19282 ft 383 kts 303°
2026-04-15 22:20 49.52795 10.10272 18927 ft 382 kts 312°
2026-04-15 22:20 49.54823 10.07648 18581 ft 381 kts 324°
2026-04-15 22:21 49.57162 10.05725 18191 ft 381 kts 332°
2026-04-15 22:21 49.59539 10.03950 17793 ft 379 kts 332°
2026-04-15 22:21 49.61906 10.02175 17395 ft 377 kts 332°
2026-04-15 22:21 49.64256 10.00403 17003 ft 375 kts 332°
2026-04-15 22:22 49.66594 9.98635 16616 ft 373 kts 331°
2026-04-15 22:22 49.68917 9.96872 16230 ft 371 kts 331°
2026-04-15 22:22 49.71230 9.95114 15853 ft 369 kts 331°
2026-04-15 22:22 49.73476 9.93328 15485 ft 367 kts 329°
2026-04-15 22:23 49.75695 9.91419 15115 ft 365 kts 328°
2026-04-15 22:23 49.77886 9.89455 14757 ft 363 kts 327°
2026-04-15 22:23 49.80047 9.87489 14397 ft 357 kts 327°
2026-04-15 22:23 49.82166 9.85568 14041 ft 350 kts 327°
2026-04-15 22:24 49.84253 9.83692 13633 ft 344 kts 328°
2026-04-15 22:24 49.86312 9.81853 13237 ft 338 kts 328°
2026-04-15 22:24 49.88337 9.80056 12848 ft 333 kts 328°
2026-04-15 22:24 49.90344 9.78304 12460 ft 328 kts 329°
2026-04-15 22:25 49.92343 9.76638 12056 ft 325 kts 330°
2026-04-15 22:25 49.94341 9.75013 11609 ft 323 kts 330°
2026-04-15 22:25 49.96328 9.73408 11158 ft 321 kts 330°
2026-04-15 22:25 49.98307 9.71803 10708 ft 320 kts 330°
2026-04-15 22:26 50.00235 9.70113 10307 ft 316 kts 324°
2026-04-15 22:26 50.02055 9.68314 10188 ft 304 kts 327°
2026-04-15 22:26 50.03781 9.66578 10159 ft 290 kts 321°
2026-04-15 22:26 50.05372 9.64638 9737 ft 290 kts 320°
2026-04-15 22:27 50.06940 9.62674 9316 ft 289 kts 319°
2026-04-15 22:27 50.08495 9.60704 8897 ft 287 kts 319°
2026-04-15 22:27 50.10038 9.58746 8485 ft 286 kts 319°
2026-04-15 22:27 50.11577 9.56799 8078 ft 284 kts 319°
2026-04-15 22:28 50.13105 9.54866 7710 ft 281 kts 319°
2026-04-15 22:28 50.14604 9.52973 7423 ft 274 kts 319°
2026-04-15 22:28 50.16046 9.51151 7225 ft 265 kts 318°
2026-04-15 22:28 50.17451 9.49377 7111 ft 254 kts 318°
2026-04-15 22:29 50.18793 9.47677 6987 ft 244 kts 318°
2026-04-15 22:29 50.20099 9.46019 6865 ft 241 kts 318°
2026-04-15 22:29 50.21255 9.44160 6744 ft 237 kts 303°
2026-04-15 22:29 50.22021 9.41915 6623 ft 234 kts 287°
2026-04-15 22:30 50.22366 9.39455 6493 ft 231 kts 272°
2026-04-15 22:30 50.22277 9.36966 6360 ft 229 kts 257°
2026-04-15 22:30 50.21802 9.34599 6232 ft 228 kts 249°
2026-04-15 22:30 50.21260 9.32268 6102 ft 228 kts 249°
2026-04-15 22:31 50.20723 9.29940 5975 ft 228 kts 249°
2026-04-15 22:31 50.20187 9.27612 5841 ft 228 kts 249°
2026-04-15 22:31 50.19653 9.25286 5712 ft 227 kts 249°
2026-04-15 22:31 50.19118 9.22965 5586 ft 227 kts 249°
2026-04-15 22:32 50.18582 9.20645 5457 ft 227 kts 249°
2026-04-15 22:32 50.18046 9.18326 5335 ft 227 kts 250°
2026-04-15 22:32 50.17508 9.16012 5208 ft 226 kts 250°
2026-04-15 22:32 50.16971 9.13710 5098 ft 226 kts 250°
2026-04-15 22:33 50.16437 9.11443 5006 ft 225 kts 249°
2026-04-15 22:33 50.15886 9.09122 5009 ft 225 kts 249°
2026-04-15 22:33 50.15349 9.06829 5010 ft 226 kts 250°
2026-04-15 22:33 50.14820 9.04558 5010 ft 225 kts 250°
2026-04-15 22:34 50.14291 9.02289 5006 ft 219 kts 250°
2026-04-15 22:34 50.13776 9.00082 5007 ft 215 kts 250°
2026-04-15 22:34 50.13279 8.97957 5005 ft 201 kts 249°
2026-04-15 22:34 50.12812 8.95962 5025 ft 194 kts 249°
2026-04-15 22:35 50.12350 8.93988 4996 ft 194 kts 249°
2026-04-15 22:35 50.11900 8.92070 4819 ft 185 kts 249°
2026-04-15 22:35 50.11462 8.90204 4616 ft 181 kts 249°
2026-04-15 22:35 50.11030 8.88362 4355 ft 179 kts 249°
2026-04-15 22:36 50.10622 8.86625 4120 ft 164 kts 249°
2026-04-15 22:36 50.10238 8.84992 3915 ft 159 kts 249°
2026-04-15 22:36 50.09857 8.83377 3700 ft 158 kts 249°
2026-04-15 22:36 50.09479 8.81770 3492 ft 158 kts 249°
2026-04-15 22:37 50.09108 8.80196 3274 ft 148 kts 249°
2026-04-15 22:37 50.08761 8.78727 3075 ft 142 kts 249°
2026-04-15 22:37 50.08423 8.77295 2885 ft 140 kts 249°
2026-04-15 22:37 50.08087 8.75872 2703 ft 139 kts 249°
2026-04-15 22:38 50.07754 8.74462 2512 ft 139 kts 249°
2026-04-15 22:38 50.07419 8.73047 2333 ft 139 kts 249°
2026-04-15 22:38 50.07085 8.71637 2143 ft 139 kts 249°
2026-04-15 22:38 50.06751 8.70224 1953 ft 139 kts 249°
2026-04-15 22:39 50.06416 8.68812 1757 ft 139 kts 249°
2026-04-15 22:39 50.06082 8.67401 1574 ft 139 kts 249°
2026-04-15 22:39 50.05746 8.65984 1381 ft 140 kts 249°
2026-04-15 22:39 50.05408 8.64565 1198 ft 140 kts 249°
2026-04-15 22:40 50.05071 8.63143 1012 ft 140 kts 248°
2026-04-15 22:40 50.04734 8.61721 832 ft 140 kts 249°
2026-04-15 22:40 50.04399 8.60304 682 ft 140 kts 248°
2026-04-15 22:41 50.03727 8.57496 362 ft 131 kts 249°
2026-04-15 22:41 50.03510 8.56581 354 ft 47 kts 250°
2026-04-15 22:41 50.03451 8.56314 351 ft 25 kts 256°
2026-04-15 22:41 50.03437 8.56068 356 ft 21 kts 275°
2026-04-15 22:42 50.03447 8.55962 351 ft 8 kts 279°
2026-04-15 22:42 50.03455 8.55881 345 ft 7 kts 279°
2026-04-15 22:42 50.03465 8.55795 350 ft 8 kts 281°
2026-04-15 22:42 50.03497 8.55706 348 ft 10 kts 332°
2026-04-15 22:43 50.03560 8.55760 351 ft 13 kts 64°
2026-04-15 22:43 50.03606 8.55950 353 ft 23 kts 70°
2026-04-15 22:43 50.03656 8.56163 357 ft 21 kts 70°
2026-04-15 22:43 50.03693 8.56321 352 ft 15 kts 70°
2026-04-15 22:44 50.03729 8.56469 360 ft 15 kts 69°
2026-04-15 22:44 50.03764 8.56607 354 ft 12 kts 64°
2026-04-15 22:44 50.03836 8.56665 354 ft 12 kts 12°
2026-04-15 22:44 50.03909 8.56688 360 ft 13 kts 11°
2026-04-15 22:45 50.04000 8.56717 356 ft 12 kts 11°
2026-04-15 22:45 50.04092 8.56745 358 ft 13 kts 11°
2026-04-15 22:45 50.04179 8.56772 358 ft 12 kts 11°
2026-04-15 22:45 50.04252 8.56796 361 ft 10 kts 12°
2026-04-15 22:46 50.04312 8.56815 360 ft 8 kts 12°
2026-04-15 22:46 50.04364 8.56831 360 ft 8 kts 11°
2026-04-15 22:46 50.04426 8.56850 361 ft 11 kts 10°
2026-04-15 22:46 50.04497 8.56872 359 ft 10 kts 12°
2026-04-15 22:47 50.04565 8.56896 358 ft 9 kts 13°
2026-04-15 22:47 50.04620 8.56910 356 ft 6 kts 347°
2026-04-15 22:47 50.04640 8.56863 358 ft 5 kts 295°
2026-04-15 22:47 50.04651 8.56825 362 ft 2 kts 294°
2026-04-15 22:48 50.04655 8.56812 361 ft 1 kts 294°
2026-04-15 22:48 50.04655 8.56809 361 ft 0 kts 294°